Weather in Yonago

Japan     35°25′52″N   133°19′47″E
temp.,
°C
wind,
m/s
gust,
m/s
humid.,
%
clouds,
%
prec.,
mm/h
press.,
hPa
HPBL,
m
24 june, thu
thu2400:00+18se22855 0.0 1012223
03:00+18se22870 0.0 1011215
06:00+18se22850 0.0 1012190
09:00+20ne23796 0.0 1013412
12:00+21ne437628 0.0 1012539
15:00+21ne54756 0.1 1011508
18:00+21ne447936 0.2 1011448
21:00+20e348687 0.3 1012327
25 june, fri
fri2500:00+19ese2389100 0.3 1012169
03:00+19sse1188100 0.3 1011120
06:00+19se1186100 0.0 1012131
09:00+21ne21783 0.1 1012251
12:00+22ne438025 0.1 1011479
15:00+22ne437926 0.3 1010503
18:00+21ne338511 0.6 1011241
21:00+21ese238872 1.1 1012154
26 june, sat
sat2600:00+20s2288100 0.0 1011102
03:00+20s338677 0.0 101199
06:00+20s2284100 0.0 101199
09:00+23ese1273100 0.0 1012233
12:00+23e1275100 0.3 1011173
15:00+22ese1183100 2.7 101169
18:00+22ene2285100 0.0 1011150
21:00+22ene3387100 0.4 1011111
27 june, sun
sun2700:00+21se2386100 0.1 1009131
03:00+20se3887100 0.1 1008370
06:00+20se2384100 0.1 1008165
09:00+22ese227738 0.1 1007289
12:00+23ne657778 0.0 1005452
15:00+22nne5578100 0.1 1004383
18:00+22ne3482100 0.0 1004320
21:00+21ene5688100 0.0 1004394
28 june, mon
mon2800:00+20e348961 0.0 1003411
03:00+20ese128772 0.0 1003345
06:00+20se118679 0.1 1003182
09:00+21ese118277 0.2 1003391
12:00+22nne448323 0.1 1003594
15:00+22nne548222 0.2 1002607
18:00+22ne5683100 0.0 1002595
21:00+21ne459033 0.3 1003388